Tracking 19706 objects as of 16-Jun-2019
HD Live streaming from Space Station
objects crossing your sky now

THORAD AGENA D DEB

Track THORAD AGENA D DEB now!
10-day predictions


NORAD ID: 4993
Int'l Code: 1970-025HP
Perigee: 843.5 km
Apogee: 980.3 km
Inclination: 100.2 °
Period: 103.1 minutes
Semi major axis: 7282 km
RCS: 0.013 m2 (small)
Launch date: April 8, 1970
Source: United States (US)
Launch site: AIR FORCE WESTERN TEST RANGE (AFWTR)

Note: This is SATELLITE DEBRIS
aabbcc
Your satellite tracking list
Your tracking list is empty




NASA's NSSDC Master Catalog

Two Line Element Set (TLE):
1  4993U 70025HP  19165.00790729  .00000284  00000-0  23430-3 0  9994
2  4993 100.2206 353.6860 0093919 299.6776  59.5058 13.96847205481567
Source of the keplerian elements: AFSPC